Time,TemperatureF,DewpointF,PressureIn,WindDirection,WindDirectionDegrees,WindSpeedMPH,WindSpeedGustMPH,Humidity,HourlyPrecipIn,Conditions,Clouds,dailyrainin,SoftwareType,DateUTC
2013-10-13 00:02:00,56.0,37.6,30.19,North,0,3.1,3.1,50,0.00,,,0.00,WUHU216HW,2013-10-13 05:02:00,
2013-10-13 00:07:00,56.0,37.6,30.19,North,0,2.2,3.1,50,0.00,,,0.00,WUHU216HW,2013-10-13 05:07:00,
2013-10-13 00:12:00,55.8,37.4,30.19,North,0,3.4,3.4,50,0.00,,,0.00,WUHU216HW,2013-10-13 05:12:00,
2013-10-13 00:17:00,55.8,37.4,30.20,NNW,338,1.8,3.4,50,0.00,,,0.00,WUHU216HW,2013-10-13 05:17:00,
2013-10-13 00:22:00,55.6,37.3,30.20,North,0,1.1,3.4,50,0.00,,,0.00,WUHU216HW,2013-10-13 05:22:00,
2013-10-13 00:27:00,55.4,37.1,30.20,North,0,1.8,1.8,50,0.00,,,0.00,WUHU216HW,2013-10-13 05:27:00,
2013-10-13 00:32:00,55.3,36.9,30.20,North,0,2.2,2.2,50,0.00,,,0.00,WUHU216HW,2013-10-13 05:32:00,
2013-10-13 00:37:00,55.3,36.9,30.20,NNE,23,2.5,2.5,50,0.00,,,0.00,WUHU216HW,2013-10-13 05:37:00,
2013-10-13 00:42:00,55.1,36.7,30.20,North,0,1.6,2.5,50,0.00,,,0.00,WUHU216HW,2013-10-13 05:42:00,
2013-10-13 00:47:00,55.1,36.7,30.20,North,0,1.8,2.5,50,0.00,,,0.00,WUHU216HW,2013-10-13 05:47:00,
2013-10-13 00:52:00,55.1,36.7,30.21,North,0,1.6,1.8,50,0.00,,,0.00,WUHU216HW,2013-10-13 05:52:00,
2013-10-13 00:57:00,55.1,36.7,30.21,North,0,2.2,2.2,50,0.00,,,0.00,WUHU216HW,2013-10-13 05:57:00,
2013-10-13 01:02:00,55.1,37.3,30.21,North,0,1.1,2.2,51,0.00,,,0.00,WUHU216HW,2013-10-13 06:02:00,
2013-10-13 01:07:00,55.1,37.3,30.22,North,0,1.8,2.0,51,0.00,,,0.00,WUHU216HW,2013-10-13 06:07:00,
2013-10-13 01:12:00,54.7,36.9,30.22,North,0,1.8,1.8,51,0.00,,,0.00,WUHU216HW,2013-10-13 06:12:00,
2013-10-13 01:17:00,54.7,36.9,30.22,North,0,3.4,3.4,51,0.00,,,0.00,WUHU216HW,2013-10-13 06:17:00,
2013-10-13 01:22:00,54.5,37.2,30.22,North,0,2.9,3.4,52,0.00,,,0.00,WUHU216HW,2013-10-13 06:22:00,
2013-10-13 01:27:00,54.2,36.9,30.22,NNW,338,1.8,3.4,52,0.00,,,0.00,WUHU216HW,2013-10-13 06:27:00,
2013-10-13 01:32:00,54.2,36.9,30.22,North,0,1.6,3.4,52,0.00,,,0.00,WUHU216HW,2013-10-13 06:32:00,
2013-10-13 01:37:00,54.0,36.7,30.22,North,0,1.6,1.8,52,0.00,,,0.00,WUHU216HW,2013-10-13 06:37:00,
2013-10-13 01:42:00,54.2,37.4,30.22,North,0,2.5,2.5,53,0.00,,,0.00,WUHU216HW,2013-10-13 06:42:00,
2013-10-13 01:47:00,54.2,37.4,30.22,North,0,2.5,2.5,53,0.00,,,0.00,WUHU216HW,2013-10-13 06:47:00,
2013-10-13 01:52:00,54.0,37.2,30.22,NNE,23,3.6,3.6,53,0.00,,,0.00,WUHU216HW,2013-10-13 06:52:00,
2013-10-13 01:57:00,54.0,37.2,30.22,North,0,2.2,3.6,53,0.00,,,0.00,WUHU216HW,2013-10-13 06:57:00,
2013-10-13 02:02:00,53.6,37.4,30.22,North,0,2.7,3.6,54,0.00,,,0.00,WUHU216HW,2013-10-13 07:02:00,
2013-10-13 02:07:00,53.6,37.4,30.22,North,0,2.0,2.7,54,0.00,,,0.00,WUHU216HW,2013-10-13 07:07:00,
2013-10-13 02:12:00,53.6,37.4,30.23,North,0,2.0,2.7,54,0.00,,,0.00,WUHU216HW,2013-10-13 07:12:00,
2013-10-13 02:17:00,53.5,37.6,30.23,North,0,3.1,3.4,55,0.00,,,0.00,WUHU216HW,2013-10-13 07:17:00,
2013-10-13 02:22:00,53.5,37.6,30.23,North,0,3.4,3.4,55,0.00,,,0.00,WUHU216HW,2013-10-13 07:22:00,
2013-10-13 02:27:00,53.6,37.8,30.23,North,0,2.5,3.4,55,0.00,,,0.00,WUHU216HW,2013-10-13 07:27:00,
2013-10-13 02:32:00,53.6,37.8,30.23,North,0,3.4,4.5,55,0.00,,,0.00,WUHU216HW,2013-10-13 07:32:00,
2013-10-13 02:37:00,53.5,37.6,30.23,NNW,338,2.9,4.5,55,0.00,,,0.00,WUHU216HW,2013-10-13 07:37:00,
2013-10-13 02:42:00,53.3,37.9,30.23,NNE,23,2.0,3.4,56,0.00,,,0.00,WUHU216HW,2013-10-13 07:42:00,
2013-10-13 02:47:00,52.7,37.9,30.23,NNW,338,4.0,4.0,57,0.00,,,0.00,WUHU216HW,2013-10-13 07:47:00,
2013-10-13 02:52:00,52.6,37.7,30.23,North,0,2.5,4.0,57,0.00,,,0.00,WUHU216HW,2013-10-13 07:52:00,
2013-10-13 02:57:00,52.4,38.0,30.23,NE,45,4.7,4.7,58,0.00,,,0.00,WUHU216HW,2013-10-13 07:57:00,
2013-10-13 03:02:00,52.2,37.8,30.23,North,0,4.0,4.7,58,0.00,,,0.00,WUHU216HW,2013-10-13 08:02:00,
2013-10-13 03:07:00,52.2,38.3,30.23,North,0,3.4,5.1,59,0.00,,,0.00,WUHU216HW,2013-10-13 08:07:00,
2013-10-13 03:12:00,52.0,38.5,30.23,North,0,3.6,5.1,60,0.00,,,0.00,WUHU216HW,2013-10-13 08:12:00,
2013-10-13 03:17:00,51.7,38.2,30.23,NNE,23,2.7,3.6,60,0.00,,,0.00,WUHU216HW,2013-10-13 08:17:00,
2013-10-13 03:22:00,51.5,38.4,30.23,North,0,4.0,4.0,61,0.00,,,0.00,WUHU216HW,2013-10-13 08:22:00,
2013-10-13 03:27:00,51.3,38.3,30.23,NNE,23,4.0,4.0,61,0.00,,,0.00,WUHU216HW,2013-10-13 08:27:00,
2013-10-13 03:32:00,50.9,38.3,30.23,North,0,2.7,4.0,62,0.00,,,0.00,WUHU216HW,2013-10-13 08:32:00,
2013-10-13 03:37:00,51.1,38.5,30.23,NNE,23,3.1,4.0,62,0.00,,,0.00,WUHU216HW,2013-10-13 08:37:00,
2013-10-13 03:42:00,50.9,38.3,30.23,NNE,23,3.6,4.0,62,0.00,,,0.00,WUHU216HW,2013-10-13 08:42:00,
2013-10-13 03:47:00,50.8,38.2,30.23,North,0,4.7,4.7,62,0.00,,,0.00,WUHU216HW,2013-10-13 08:47:00,
2013-10-13 03:52:00,50.6,38.4,30.23,North,0,3.6,4.7,63,0.00,,,0.00,WUHU216HW,2013-10-13 08:52:00,
2013-10-13 03:57:00,50.6,38.4,30.24,NNE,23,3.8,5.1,63,0.00,,,0.00,WUHU216HW,2013-10-13 08:57:00,
2013-10-13 04:02:00,50.6,38.4,30.24,North,0,4.3,5.1,63,0.00,,,0.00,WUHU216HW,2013-10-13 09:02:00,
2013-10-13 04:07:00,50.0,38.4,30.24,NNE,23,1.1,4.3,64,0.00,,,0.00,WUHU216HW,2013-10-13 09:07:00,
2013-10-13 04:12:00,49.7,38.0,30.24,NNE,23,2.0,4.3,64,0.00,,,0.00,WUHU216HW,2013-10-13 09:12:00,
2013-10-13 04:17:00,49.5,37.8,30.24,NE,45,1.8,2.0,64,0.00,,,0.00,WUHU216HW,2013-10-13 09:17:00,
2013-10-13 04:22:00,49.5,37.8,30.24,NNE,23,2.9,2.9,64,0.00,,,0.00,WUHU216HW,2013-10-13 09:22:00,
2013-10-13 04:27:00,49.7,38.0,30.24,NNE,23,3.8,3.8,64,0.00,,,0.00,WUHU216HW,2013-10-13 09:27:00,
2013-10-13 04:32:00,50.0,37.9,30.24,North,0,2.2,3.8,63,0.00,,,0.00,WUHU216HW,2013-10-13 09:32:00,
2013-10-13 04:37:00,50.0,37.9,30.24,NNE,23,3.1,3.1,63,0.00,,,0.00,WUHU216HW,2013-10-13 09:37:00,
2013-10-13 04:42:00,50.0,37.9,30.24,North,0,4.7,4.7,63,0.00,,,0.00,WUHU216HW,2013-10-13 09:42:00,
2013-10-13 04:47:00,50.0,37.9,30.25,NNE,23,2.2,4.7,63,0.00,,,0.00,WUHU216HW,2013-10-13 09:47:00,
2013-10-13 04:52:00,49.9,37.7,30.25,NNE,23,3.4,3.4,63,0.00,,,0.00,WUHU216HW,2013-10-13 09:52:00,
2013-10-13 04:57:00,49.7,37.5,30.25,NE,45,1.6,3.4,63,0.00,,,0.00,WUHU216HW,2013-10-13 09:57:00,
2013-10-13 05:02:00,49.3,37.3,30.25,North,0,3.6,3.6,63,0.00,,,0.00,WUHU216HW,2013-10-13 10:02:00,
2013-10-13 05:07:00,49.5,37.5,30.25,NNE,23,4.0,4.0,63,0.00,,,0.00,WUHU216HW,2013-10-13 10:07:00,
2013-10-13 05:12:00,49.7,37.5,30.25,NNE,23,3.1,4.0,63,0.00,,,0.00,WUHU216HW,2013-10-13 10:12:00,
2013-10-13 05:17:00,49.7,37.5,30.25,North,0,2.2,4.0,63,0.00,,,0.00,WUHU216HW,2013-10-13 10:17:00,
2013-10-13 05:22:00,49.5,37.5,30.25,NNE,23,4.0,4.0,63,0.00,,,0.00,WUHU216HW,2013-10-13 10:22:00,
2013-10-13 05:27:00,49.5,37.5,30.25,NNE,23,4.3,4.3,63,0.00,,,0.00,WUHU216HW,2013-10-13 10:27:00,
2013-10-13 05:32:00,49.7,37.5,30.25,NNE,23,4.3,4.3,63,0.00,,,0.00,WUHU216HW,2013-10-13 10:32:00,
2013-10-13 05:37:00,49.5,37.5,30.26,NE,45,2.9,4.3,63,0.00,,,0.00,WUHU216HW,2013-10-13 10:37:00,
2013-10-13 05:42:00,49.3,37.3,30.26,NE,45,1.8,4.3,63,0.00,,,0.00,WUHU216HW,2013-10-13 10:42:00,
2013-10-13 05:47:00,48.8,36.7,30.26,NE,45,2.5,2.9,63,0.00,,,0.00,WUHU216HW,2013-10-13 10:47:00,
2013-10-13 05:52:00,48.6,36.5,30.26,NE,45,2.5,2.5,63,0.00,,,0.00,WUHU216HW,2013-10-13 10:52:00,
2013-10-13 05:57:00,48.4,36.4,30.26,NE,45,2.2,2.5,63,0.00,,,0.00,WUHU216HW,2013-10-13 10:57:00,
2013-10-13 06:02:00,48.2,36.3,30.26,NE,45,2.0,2.5,63,0.00,,,0.00,WUHU216HW,2013-10-13 11:02:00,
2013-10-13 06:07:00,48.1,36.1,30.26,NE,45,2.0,2.2,63,0.00,,,0.00,WUHU216HW,2013-10-13 11:07:00,
2013-10-13 06:12:00,48.2,36.3,30.27,NE,45,2.2,2.2,63,0.00,,,0.00,WUHU216HW,2013-10-13 11:12:00,
2013-10-13 06:17:00,48.2,36.3,30.27,NE,45,3.4,3.4,63,0.00,,,0.00,WUHU216HW,2013-10-13 11:17:00,
2013-10-13 06:22:00,48.2,36.3,30.27,NE,45,1.1,3.4,63,0.00,,,0.00,WUHU216HW,2013-10-13 11:22:00,
2013-10-13 06:27:00,47.9,35.9,30.27,NE,45,2.2,2.5,63,0.00,,,0.00,WUHU216HW,2013-10-13 11:27:00,
2013-10-13 06:32:00,47.9,35.9,30.27,NE,45,2.2,2.2,63,0.00,,,0.00,WUHU216HW,2013-10-13 11:32:00,
2013-10-13 06:37:00,47.7,35.7,30.27,NE,45,4.3,4.3,63,0.00,,,0.00,WUHU216HW,2013-10-13 11:37:00,
2013-10-13 06:42:00,48.8,36.4,30.27,NE,45,3.1,4.3,62,0.00,,,0.00,WUHU216HW,2013-10-13 11:42:00,
2013-10-13 06:47:00,49.0,36.9,30.27,NE,45,3.6,3.6,63,0.00,,,0.00,WUHU216HW,2013-10-13 11:47:00,
2013-10-13 06:52:00,48.6,36.5,30.28,NNE,23,2.2,3.6,63,0.00,,,0.00,WUHU216HW,2013-10-13 11:52:00,
2013-10-13 06:57:00,48.2,36.3,30.28,NE,45,2.5,3.6,63,0.00,,,0.00,WUHU216HW,2013-10-13 11:57:00,
2013-10-13 07:02:00,48.1,36.1,30.28,NE,45,2.5,2.7,63,0.00,,,0.00,WUHU216HW,2013-10-13 12:02:00,
2013-10-13 07:07:00,47.9,35.9,30.28,NNE,23,2.5,2.5,63,0.00,,,0.00,WUHU216HW,2013-10-13 12:07:00,
2013-10-13 07:12:00,47.3,35.4,30.28,NNE,23,2.0,2.5,63,0.00,,,0.00,WUHU216HW,2013-10-13 12:12:00,
2013-10-13 07:17:00,47.3,35.4,30.28,NE,45,1.8,2.7,63,0.00,,,0.00,WUHU216HW,2013-10-13 12:17:00,
2013-10-13 07:22:00,47.2,35.6,30.29,NE,45,1.8,2.7,64,0.00,,,0.00,WUHU216HW,2013-10-13 12:22:00,
2013-10-13 07:26:00,47.0,35.4,30.29,NE,45,2.5,2.5,64,0.00,,,0.00,WUHU216HW,2013-10-13 12:26:00,
2013-10-13 07:31:00,47.0,35.4,30.29,North,0,2.0,3.1,64,0.00,,,0.00,WUHU216HW,2013-10-13 12:31:00,
2013-10-13 07:36:00,47.2,35.6,30.29,NNE,23,2.5,3.1,64,0.00,,,0.00,WUHU216HW,2013-10-13 12:36:00,
2013-10-13 07:41:00,47.2,35.6,30.29,NNE,23,1.3,2.5,64,0.00,,,0.00,WUHU216HW,2013-10-13 12:41:00,
2013-10-13 07:46:00,47.2,35.6,30.30,NNE,23,1.6,2.5,64,0.00,,,0.00,WUHU216HW,2013-10-13 12:46:00,
2013-10-13 07:51:00,48.6,36.5,30.30,NNE,23,1.8,1.8,63,0.00,,,0.00,WUHU216HW,2013-10-13 12:51:00,
2013-10-13 07:56:00,49.5,37.5,30.30,NE,45,1.8,1.8,63,0.00,,,0.00,WUHU216HW,2013-10-13 12:56:00,
2013-10-13 08:01:00,50.6,37.2,30.30,ENE,68,3.4,3.4,60,0.00,,,0.00,WUHU216HW,2013-10-13 13:01:00,
2013-10-13 08:06:00,51.5,38.0,30.30,NE,45,5.4,5.4,60,0.00,,,0.00,WUHU216HW,2013-10-13 13:06:00,
2013-10-13 08:11:00,52.2,38.3,30.30,NE,45,2.9,5.4,59,0.00,,,0.00,WUHU216HW,2013-10-13 13:11:00,
2013-10-13 08:16:00,52.6,38.2,30.30,ENE,68,2.9,4.0,58,0.00,,,0.00,WUHU216HW,2013-10-13 13:16:00,
2013-10-13 08:21:00,52.9,38.1,30.31,ENE,68,4.7,4.7,57,0.00,,,0.00,WUHU216HW,2013-10-13 13:21:00,
2013-10-13 08:26:00,53.8,38.4,30.31,ENE,68,4.0,4.7,56,0.00,,,0.00,WUHU216HW,2013-10-13 13:26:00,
2013-10-13 08:31:00,54.4,38.9,30.32,ENE,68,2.2,4.0,56,0.00,,,0.00,WUHU216HW,2013-10-13 13:31:00,
2013-10-13 08:36:00,54.5,38.2,30.32,NE,45,6.5,6.5,54,0.00,,,0.00,WUHU216HW,2013-10-13 13:36:00,
2013-10-13 08:41:00,54.5,39.1,30.32,NNE,23,3.1,6.5,56,0.00,,,0.00,WUHU216HW,2013-10-13 13:41:00,
2013-10-13 08:46:00,55.1,39.1,30.32,ENE,68,3.1,4.3,55,0.00,,,0.00,WUHU216HW,2013-10-13 13:46:00,
2013-10-13 08:51:00,55.4,39.0,30.32,ENE,68,4.3,4.3,54,0.00,,,0.00,WUHU216HW,2013-10-13 13:51:00,
2013-10-13 08:56:00,55.8,39.3,30.33,East,90,3.6,4.3,54,0.00,,,0.00,WUHU216HW,2013-10-13 13:56:00,
2013-10-13 09:01:00,56.2,39.7,30.32,ENE,68,4.0,4.0,54,0.00,,,0.00,WUHU216HW,2013-10-13 14:01:00,
2013-10-13 09:06:00,56.3,39.9,30.33,ENE,68,4.0,4.0,54,0.00,,,0.00,WUHU216HW,2013-10-13 14:06:00,
2013-10-13 09:11:00,56.3,39.9,30.33,ENE,68,2.5,4.0,54,0.00,,,0.00,WUHU216HW,2013-10-13 14:11:00,
2013-10-13 09:16:00,56.5,40.1,30.33,ENE,68,3.4,4.5,54,0.00,,,0.00,WUHU216HW,2013-10-13 14:16:00,
2013-10-13 09:21:00,57.1,40.2,30.33,ENE,68,4.7,4.7,53,0.00,,,0.00,WUHU216HW,2013-10-13 14:21:00,
2013-10-13 09:26:00,57.2,40.8,30.33,ENE,68,4.7,4.7,54,0.00,,,0.00,WUHU216HW,2013-10-13 14:26:00,
2013-10-13 09:31:00,57.4,40.4,30.33,ENE,68,5.8,5.8,53,0.00,,,0.00,WUHU216HW,2013-10-13 14:31:00,
2013-10-13 09:36:00,58.0,40.5,30.33,NE,45,6.5,6.5,52,0.00,,,0.00,WUHU216HW,2013-10-13 14:36:00,
2013-10-13 09:41:00,58.0,40.5,30.33,NE,45,6.9,6.9,52,0.00,,,0.00,WUHU216HW,2013-10-13 14:41:00,
2013-10-13 09:46:00,59.0,40.5,30.33,ENE,68,8.3,8.3,50,0.00,,,0.00,WUHU216HW,2013-10-13 14:46:00,
2013-10-13 09:51:00,58.9,40.8,30.33,NE,45,4.5,8.3,51,0.00,,,0.00,WUHU216HW,2013-10-13 14:51:00,
2013-10-13 09:56:00,59.2,41.1,30.33,NE,45,5.1,8.3,51,0.00,,,0.00,WUHU216HW,2013-10-13 14:56:00,
2013-10-13 10:01:00,59.4,40.9,30.34,NE,45,4.7,5.1,50,0.00,,,0.00,WUHU216HW,2013-10-13 15:01:00,
2013-10-13 10:06:00,60.1,41.5,30.34,ENE,68,4.0,5.1,50,0.00,,,0.00,WUHU216HW,2013-10-13 15:06:00,
2013-10-13 10:11:00,60.7,41.9,30.34,ENE,68,3.6,5.1,50,0.00,,,0.00,WUHU216HW,2013-10-13 15:11:00,
2013-10-13 10:16:00,61.2,41.9,30.34,East,90,2.9,4.0,49,0.00,,,0.00,WUHU216HW,2013-10-13 15:16:00,
2013-10-13 10:21:00,61.6,42.2,30.34,ESE,113,3.6,3.6,49,0.00,,,0.00,WUHU216HW,2013-10-13 15:21:00,
2013-10-13 10:26:00,62.6,42.0,30.34,ENE,68,4.0,4.0,47,0.00,,,0.00,WUHU216HW,2013-10-13 15:26:00,
2013-10-13 10:31:00,63.0,41.8,30.34,SE,135,4.5,4.5,46,0.00,,,0.00,WUHU216HW,2013-10-13 15:31:00,
2013-10-13 10:36:00,63.4,41.0,30.34,East,90,4.7,4.7,44,0.00,,,0.00,WUHU216HW,2013-10-13 15:36:00,
2013-10-13 10:41:00,62.6,40.9,30.34,NE,45,5.8,5.8,45,0.00,,,0.00,WUHU216HW,2013-10-13 15:41:00,
2013-10-13 10:46:00,63.0,40.6,30.34,East,90,4.5,5.8,44,0.00,,,0.00,WUHU216HW,2013-10-13 15:46:00,
2013-10-13 10:51:00,63.5,41.1,30.34,East,90,5.4,5.8,44,0.00,,,0.00,WUHU216HW,2013-10-13 15:51:00,
2013-10-13 10:56:00,63.7,41.9,30.34,ENE,68,4.7,5.4,45,0.00,,,0.00,WUHU216HW,2013-10-13 15:56:00,
2013-10-13 11:01:00,64.3,42.3,30.34,East,90,4.7,4.7,45,0.00,,,0.00,WUHU216HW,2013-10-13 16:01:00,
2013-10-13 11:06:00,64.8,41.0,30.34,SE,135,3.6,4.7,42,0.00,,,0.00,WUHU216HW,2013-10-13 16:06:00,
2013-10-13 11:11:00,65.2,40.2,30.34,East,90,2.2,4.7,40,0.00,,,0.00,WUHU216HW,2013-10-13 16:11:00,
2013-10-13 11:16:00,65.5,40.6,30.34,East,90,2.7,3.6,40,0.00,,,0.00,WUHU216HW,2013-10-13 16:16:00,
2013-10-13 11:21:00,65.7,40.8,30.34,East,90,4.5,4.5,40,0.00,,,0.00,WUHU216HW,2013-10-13 16:21:00,
2013-10-13 11:26:00,66.2,41.2,30.34,SE,135,2.5,6.7,40,0.00,,,0.00,WUHU216HW,2013-10-13 16:26:00,
2013-10-13 11:31:00,66.4,40.0,30.34,East,90,1.1,6.7,38,0.00,,,0.00,WUHU216HW,2013-10-13 16:31:00,
2013-10-13 11:36:00,66.6,38.6,30.34,ESE,113,3.8,3.8,36,0.00,,,0.00,WUHU216HW,2013-10-13 16:36:00,
2013-10-13 11:41:00,67.0,37.5,30.34,SE,135,4.9,5.6,34,0.00,,,0.00,WUHU216HW,2013-10-13 16:41:00,
2013-10-13 11:46:00,67.0,37.5,30.34,NE,45,4.9,5.6,34,0.00,,,0.00,WUHU216HW,2013-10-13 16:46:00,
2013-10-13 11:51:00,67.1,37.6,30.34,ESE,113,2.7,4.9,34,0.00,,,0.00,WUHU216HW,2013-10-13 16:51:00,
2013-10-13 11:56:00,67.5,37.3,30.34,ESE,113,4.5,9.6,33,0.00,,,0.00,WUHU216HW,2013-10-13 16:56:00,
2013-10-13 12:01:00,67.5,36.5,30.34,ESE,113,6.9,9.6,32,0.00,,,0.00,WUHU216HW,2013-10-13 17:01:00,
2013-10-13 12:06:00,67.7,36.6,30.33,ENE,68,4.7,6.9,32,0.00,,,0.00,WUHU216HW,2013-10-13 17:06:00,
2013-10-13 12:11:00,67.7,37.4,30.33,NE,45,7.2,7.6,33,0.00,,,0.00,WUHU216HW,2013-10-13 17:11:00,
2013-10-13 12:16:00,68.0,36.9,30.33,NE,45,5.4,7.6,32,0.00,,,0.00,WUHU216HW,2013-10-13 17:16:00,
2013-10-13 12:21:00,68.2,37.8,30.33,ESE,113,5.6,7.2,33,0.00,,,0.00,WUHU216HW,2013-10-13 17:21:00,
2013-10-13 12:26:00,68.2,37.1,30.33,NNE,23,6.7,8.1,32,0.00,,,0.00,WUHU216HW,2013-10-13 17:26:00,
2013-10-13 12:31:00,68.4,37.3,30.33,NE,45,6.3,8.1,32,0.00,,,0.00,WUHU216HW,2013-10-13 17:31:00,
2013-10-13 12:36:00,68.8,37.6,30.33,NNE,23,10.7,10.7,32,0.00,,,0.00,WUHU216HW,2013-10-13 17:36:00,
2013-10-13 12:41:00,69.1,37.2,30.33,NNE,23,13.0,13.0,31,0.00,,,0.00,WUHU216HW,2013-10-13 17:41:00,
2013-10-13 12:46:00,69.3,37.4,30.33,NE,45,3.6,13.0,31,0.00,,,0.00,WUHU216HW,2013-10-13 17:46:00,
2013-10-13 12:51:00,69.3,38.1,30.33,NNE,23,9.8,13.0,32,0.00,,,0.00,WUHU216HW,2013-10-13 17:51:00,
2013-10-13 12:56:00,68.8,36.8,30.33,NE,45,8.3,11.6,31,0.00,,,0.00,WUHU216HW,2013-10-13 17:56:00,
2013-10-13 13:01:00,69.3,36.6,30.33,ENE,68,8.5,11.6,30,0.00,,,0.00,WUHU216HW,2013-10-13 18:01:00,
2013-10-13 13:06:00,69.3,36.6,30.32,NE,45,9.8,9.8,30,0.00,,,0.00,WUHU216HW,2013-10-13 18:06:00,
2013-10-13 13:11:00,69.1,35.5,30.32,NE,45,6.3,9.8,29,0.00,,,0.00,WUHU216HW,2013-10-13 18:11:00,
2013-10-13 13:16:00,69.3,35.6,30.32,ENE,68,11.4,11.4,29,0.00,,,0.00,WUHU216HW,2013-10-13 18:16:00,
2013-10-13 13:21:00,69.7,37.6,30.32,ENE,68,9.8,11.4,31,0.00,,,0.00,WUHU216HW,2013-10-13 18:21:00,
2013-10-13 13:26:00,69.8,37.1,30.31,ESE,113,6.3,11.4,30,0.00,,,0.00,WUHU216HW,2013-10-13 18:26:00,
2013-10-13 13:31:00,70.0,35.2,30.31,ENE,68,8.3,9.8,28,0.00,,,0.00,WUHU216HW,2013-10-13 18:31:00,
2013-10-13 13:36:00,70.0,37.3,30.31,NE,45,13.9,13.9,30,0.00,,,0.00,WUHU216HW,2013-10-13 18:36:00,
2013-10-13 13:41:00,70.6,38.4,30.30,NE,45,6.3,13.9,31,0.00,,,0.00,WUHU216HW,2013-10-13 18:41:00,
2013-10-13 13:46:00,70.4,37.5,30.30,NE,45,8.5,8.5,30,0.00,,,0.00,WUHU216HW,2013-10-13 18:46:00,
2013-10-13 13:51:00,70.4,36.5,30.30,NE,45,6.3,8.5,29,0.00,,,0.00,WUHU216HW,2013-10-13 18:51:00,
2013-10-13 13:56:00,70.6,37.7,30.29,ENE,68,8.1,8.5,30,0.00,,,0.00,WUHU216HW,2013-10-13 18:56:00,
2013-10-13 14:01:00,70.9,38.1,30.29,NE,45,7.6,8.1,30,0.00,,,0.00,WUHU216HW,2013-10-13 19:01:00,
2013-10-13 14:06:00,70.7,36.9,30.29,ENE,68,8.9,8.9,29,0.00,,,0.00,WUHU216HW,2013-10-13 19:06:00,
2013-10-13 14:11:00,70.7,36.9,30.29,NE,45,7.6,8.9,29,0.00,,,0.00,WUHU216HW,2013-10-13 19:11:00,
2013-10-13 14:16:00,71.1,37.2,30.29,ENE,68,5.1,8.9,29,0.00,,,0.00,WUHU216HW,2013-10-13 19:16:00,
2013-10-13 14:21:00,70.9,38.1,30.28,NE,45,4.9,14.3,30,0.00,,,0.00,WUHU216HW,2013-10-13 19:21:00,
2013-10-13 14:26:00,71.8,37.8,30.28,ESE,113,5.1,14.3,29,0.00,,,0.00,WUHU216HW,2013-10-13 19:26:00,
2013-10-13 14:31:00,71.6,37.7,30.27,NNE,23,6.9,6.9,29,0.00,,,0.00,WUHU216HW,2013-10-13 19:31:00,
2013-10-13 14:36:00,71.6,38.7,30.28,North,0,9.4,9.4,30,0.00,,,0.00,WUHU216HW,2013-10-13 19:36:00,
2013-10-13 14:41:00,72.0,38.0,30.28,ENE,68,5.8,9.4,29,0.00,,,0.00,WUHU216HW,2013-10-13 19:41:00,
2013-10-13 14:46:00,71.8,36.8,30.27,NE,45,5.1,6.3,28,0.00,,,0.00,WUHU216HW,2013-10-13 19:46:00,
2013-10-13 14:51:00,72.2,36.1,30.27,ESE,113,6.9,6.9,27,0.00,,,0.00,WUHU216HW,2013-10-13 19:51:00,
2013-10-13 14:56:00,72.4,37.3,30.27,East,90,4.0,6.9,28,0.00,,,0.00,WUHU216HW,2013-10-13 19:56:00,
2013-10-13 15:01:00,72.2,38.1,30.27,NE,45,3.8,10.5,29,0.00,,,0.00,WUHU216HW,2013-10-13 20:01:00,
2013-10-13 15:06:00,72.4,37.3,30.27,ENE,68,6.0,10.5,28,0.00,,,0.00,WUHU216HW,2013-10-13 20:06:00,
2013-10-13 15:11:00,71.8,37.8,30.27,NNE,23,5.4,6.0,29,0.00,,,0.00,WUHU216HW,2013-10-13 20:11:00,
2013-10-13 15:16:00,71.6,36.6,30.26,NE,45,9.8,9.8,28,0.00,,,0.00,WUHU216HW,2013-10-13 20:16:00,
2013-10-13 15:21:00,72.5,38.4,30.26,NNE,23,8.1,9.8,29,0.00,,,0.00,WUHU216HW,2013-10-13 20:21:00,
2013-10-13 15:26:00,72.5,38.4,30.26,NE,45,5.1,8.1,29,0.00,,,0.00,WUHU216HW,2013-10-13 20:26:00,
2013-10-13 15:31:00,72.4,38.3,30.26,ENE,68,5.8,8.1,29,0.00,,,0.00,WUHU216HW,2013-10-13 20:31:00,
2013-10-13 15:36:00,71.8,36.8,30.26,ENE,68,9.8,9.8,28,0.00,,,0.00,WUHU216HW,2013-10-13 20:36:00,
2013-10-13 15:41:00,72.0,36.9,30.26,ENE,68,5.4,9.8,28,0.00,,,0.00,WUHU216HW,2013-10-13 20:41:00,
2013-10-13 15:46:00,71.8,35.7,30.26,NE,45,8.5,9.8,27,0.00,,,0.00,WUHU216HW,2013-10-13 20:46:00,
2013-10-13 15:51:00,71.8,36.8,30.25,ENE,68,6.7,8.5,28,0.00,,,0.00,WUHU216HW,2013-10-13 20:51:00,
2013-10-13 15:56:00,72.4,38.3,30.25,NE,45,5.4,8.5,29,0.00,,,0.00,WUHU216HW,2013-10-13 20:56:00,
2013-10-13 16:02:00,72.2,37.1,30.25,NE,45,4.9,5.4,28,0.00,,,0.00,WUHU216HW,2013-10-13 21:02:00,
2013-10-13 16:07:00,72.4,37.3,30.25,NE,45,7.6,7.6,28,0.00,,,0.00,WUHU216HW,2013-10-13 21:07:00,
2013-10-13 16:12:00,72.2,37.1,30.25,NE,45,8.5,8.5,28,0.00,,,0.00,WUHU216HW,2013-10-13 21:12:00,
2013-10-13 16:17:00,72.4,37.3,30.25,NNE,23,3.6,8.5,28,0.00,,,0.00,WUHU216HW,2013-10-13 21:17:00,
2013-10-13 16:22:00,72.0,36.9,30.25,ENE,68,6.9,6.9,28,0.00,,,0.00,WUHU216HW,2013-10-13 21:22:00,
2013-10-13 16:27:00,71.8,36.8,30.25,NE,45,8.9,8.9,28,0.00,,,0.00,WUHU216HW,2013-10-13 21:27:00,
2013-10-13 16:32:00,71.6,37.7,30.25,NE,45,5.6,8.9,29,0.00,,,0.00,WUHU216HW,2013-10-13 21:32:00,
2013-10-13 16:37:00,72.0,38.0,30.24,NNE,23,4.9,8.9,29,0.00,,,0.00,WUHU216HW,2013-10-13 21:37:00,
2013-10-13 16:42:00,72.2,36.1,30.24,NE,45,9.4,9.4,27,0.00,,,0.00,WUHU216HW,2013-10-13 21:42:00,
2013-10-13 16:47:00,71.6,36.6,30.24,ENE,68,5.4,9.4,28,0.00,,,0.00,WUHU216HW,2013-10-13 21:47:00,
2013-10-13 16:52:00,72.0,36.9,30.24,NE,45,3.4,9.4,28,0.00,,,0.00,WUHU216HW,2013-10-13 21:52:00,
2013-10-13 16:57:00,72.0,38.0,30.24,ENE,68,2.9,4.0,29,0.00,,,0.00,WUHU216HW,2013-10-13 21:57:00,
2013-10-13 17:02:00,71.6,35.7,30.24,East,90,7.8,7.8,27,0.00,,,0.00,WUHU216HW,2013-10-13 22:02:00,
2013-10-13 17:07:00,71.1,36.2,30.24,ENE,68,8.5,8.5,28,0.00,,,0.00,WUHU216HW,2013-10-13 22:07:00,
2013-10-13 17:12:00,70.9,36.0,30.24,East,90,6.5,8.5,28,0.00,,,0.00,WUHU216HW,2013-10-13 22:12:00,
2013-10-13 17:17:00,70.9,37.0,30.23,ENE,68,3.6,6.5,29,0.00,,,0.00,WUHU216HW,2013-10-13 22:17:00,
2013-10-13 17:22:00,70.9,36.0,30.23,NE,45,7.6,7.6,28,0.00,,,0.00,WUHU216HW,2013-10-13 22:22:00,
2013-10-13 17:27:00,70.7,36.9,30.23,NNE,23,4.7,7.6,29,0.00,,,0.00,WUHU216HW,2013-10-13 22:27:00,
2013-10-13 17:32:00,70.6,37.7,30.24,ESE,113,2.9,7.6,30,0.00,,,0.00,WUHU216HW,2013-10-13 22:32:00,
2013-10-13 17:37:00,70.4,37.5,30.24,NE,45,5.1,5.1,30,0.00,,,0.00,WUHU216HW,2013-10-13 22:37:00,
2013-10-13 17:42:00,69.5,36.7,30.24,ENE,68,4.0,5.1,30,0.00,,,0.00,WUHU216HW,2013-10-13 22:42:00,
2013-10-13 17:47:00,68.6,36.7,30.23,NE,45,3.6,5.1,31,0.00,,,0.00,WUHU216HW,2013-10-13 22:47:00,
2013-10-13 17:52:00,68.0,36.9,30.24,ENE,68,4.3,4.3,32,0.00,,,0.00,WUHU216HW,2013-10-13 22:52:00,
2013-10-13 17:57:00,67.3,37.1,30.24,ENE,68,2.9,4.3,33,0.00,,,0.00,WUHU216HW,2013-10-13 22:57:00,
2013-10-13 18:02:00,66.8,37.4,30.24,East,90,1.8,2.9,34,0.00,,,0.00,WUHU216HW,2013-10-13 23:02:00,
2013-10-13 18:07:00,66.4,37.1,30.24,ENE,68,2.2,2.9,34,0.00,,,0.00,WUHU216HW,2013-10-13 23:07:00,
2013-10-13 18:12:00,65.7,36.5,30.24,East,90,2.5,2.5,34,0.00,,,0.00,WUHU216HW,2013-10-13 23:12:00,
2013-10-13 18:17:00,65.3,36.8,30.24,East,90,0.9,2.5,35,0.00,,,0.00,WUHU216HW,2013-10-13 23:17:00,
2013-10-13 18:22:00,65.2,37.4,30.24,East,90,0.2,2.5,36,0.00,,,0.00,WUHU216HW,2013-10-13 23:22:00,
2013-10-13 18:27:00,64.6,36.9,30.24,ENE,68,0.9,0.9,36,0.00,,,0.00,WUHU216HW,2013-10-13 23:27:00,
2013-10-13 18:32:00,64.1,37.1,30.24,ENE,68,1.6,1.6,37,0.00,,,0.00,WUHU216HW,2013-10-13 23:32:00,
2013-10-13 18:37:00,63.7,36.8,30.24,NE,45,1.8,1.8,37,0.00,,,0.00,WUHU216HW,2013-10-13 23:37:00,
2013-10-13 18:42:00,63.2,37.0,30.24,East,90,2.0,2.0,38,0.00,,,0.00,WUHU216HW,2013-10-13 23:42:00,
2013-10-13 18:47:00,63.0,36.9,30.24,ENE,68,3.1,3.1,38,0.00,,,0.00,WUHU216HW,2013-10-13 23:47:00,
2013-10-13 18:52:00,62.8,36.7,30.24,ENE,68,2.2,3.1,38,0.00,,,0.00,WUHU216HW,2013-10-13 23:52:00,
2013-10-13 18:57:00,62.6,36.5,30.23,ENE,68,2.5,3.1,38,0.00,,,0.00,WUHU216HW,2013-10-13 23:57:00,
2013-10-13 19:02:00,62.3,36.2,30.24,ENE,68,3.8,3.8,38,0.00,,,0.00,WUHU216HW,2013-10-14 00:02:00,
2013-10-13 19:07:00,62.1,36.8,30.24,ENE,68,2.0,3.8,39,0.00,,,0.00,WUHU216HW,2013-10-14 00:07:00,
2013-10-13 19:12:00,61.9,36.6,30.24,NE,45,3.8,3.8,39,0.00,,,0.00,WUHU216HW,2013-10-14 00:12:00,
2013-10-13 19:17:00,61.6,36.3,30.24,NE,45,2.0,3.8,39,0.00,,,0.00,WUHU216HW,2013-10-14 00:17:00,
2013-10-13 19:22:00,61.2,36.7,30.25,NE,45,1.1,2.5,40,0.00,,,0.00,WUHU216HW,2013-10-14 00:22:00,
2013-10-13 19:27:00,61.0,36.6,30.24,ENE,68,2.5,2.5,40,0.00,,,0.00,WUHU216HW,2013-10-14 00:27:00,
2013-10-13 19:32:00,60.8,36.4,30.24,East,90,2.5,2.5,40,0.00,,,0.00,WUHU216HW,2013-10-14 00:32:00,
2013-10-13 19:37:00,60.7,36.2,30.24,NNE,23,4.0,4.0,40,0.00,,,0.00,WUHU216HW,2013-10-14 00:37:00,
2013-10-13 19:42:00,60.7,36.2,30.24,ENE,68,1.8,4.0,40,0.00,,,0.00,WUHU216HW,2013-10-14 00:42:00,
2013-10-13 19:47:00,60.5,36.0,30.24,ENE,68,3.4,4.0,40,0.00,,,0.00,WUHU216HW,2013-10-14 00:47:00,
2013-10-13 19:52:00,60.3,35.9,30.24,ENE,68,1.6,3.4,40,0.00,,,0.00,WUHU216HW,2013-10-14 00:52:00,
2013-10-13 19:57:00,60.1,35.7,30.25,ENE,68,2.2,3.4,40,0.00,,,0.00,WUHU216HW,2013-10-14 00:57:00,
2013-10-13 20:02:00,59.8,36.0,30.25,NE,45,2.2,2.5,41,0.00,,,0.00,WUHU216HW,2013-10-14 01:02:00,
2013-10-13 20:07:00,59.8,36.0,30.25,ENE,68,3.4,3.4,41,0.00,,,0.00,WUHU216HW,2013-10-14 01:07:00,
2013-10-13 20:12:00,59.6,35.8,30.25,ENE,68,4.3,4.3,41,0.00,,,0.00,WUHU216HW,2013-10-14 01:12:00,
2013-10-13 20:16:00,59.6,35.8,30.25,ENE,68,2.0,4.3,41,0.00,,,0.00,WUHU216HW,2013-10-14 01:16:00,
2013-10-13 20:21:00,59.4,35.6,30.25,ENE,68,2.9,4.3,41,0.00,,,0.00,WUHU216HW,2013-10-14 01:21:00,
2013-10-13 20:26:00,59.0,35.9,30.25,East,90,4.3,4.3,42,0.00,,,0.00,WUHU216HW,2013-10-14 01:26:00,
2013-10-13 20:31:00,59.0,35.9,30.25,NE,45,3.4,4.3,42,0.00,,,0.00,WUHU216HW,2013-10-14 01:31:00,
2013-10-13 20:36:00,58.7,35.6,30.25,ENE,68,2.7,4.7,42,0.00,,,0.00,WUHU216HW,2013-10-14 01:36:00,
2013-10-13 20:41:00,58.5,36.0,30.25,ENE,68,0.9,4.7,43,0.00,,,0.00,WUHU216HW,2013-10-14 01:41:00,
2013-10-13 20:46:00,58.1,35.6,30.25,ENE,68,2.7,2.7,43,0.00,,,0.00,WUHU216HW,2013-10-14 01:46:00,
2013-10-13 20:51:00,58.0,35.5,30.25,NE,45,1.6,3.6,43,0.00,,,0.00,WUHU216HW,2013-10-14 01:51:00,
2013-10-13 20:56:00,58.0,35.5,30.25,ENE,68,2.2,3.6,43,0.00,,,0.00,WUHU216HW,2013-10-14 01:56:00,
2013-10-13 21:01:00,58.0,35.5,30.25,ESE,113,1.1,2.2,43,0.00,,,0.00,WUHU216HW,2013-10-14 02:01:00,
2013-10-13 21:06:00,57.6,35.7,30.25,ENE,68,2.2,2.2,44,0.00,,,0.00,WUHU216HW,2013-10-14 02:06:00,
2013-10-13 21:11:00,57.4,35.0,30.25,ENE,68,3.1,3.1,43,0.00,,,0.00,WUHU216HW,2013-10-14 02:11:00,
2013-10-13 21:16:00,57.2,34.8,30.25,ENE,68,3.6,3.6,43,0.00,,,0.00,WUHU216HW,2013-10-14 02:16:00,
2013-10-13 21:21:00,57.2,35.5,30.26,ENE,68,2.0,3.6,44,0.00,,,0.00,WUHU216HW,2013-10-14 02:21:00,
2013-10-13 21:26:00,57.2,35.5,30.26,ENE,68,2.7,3.6,44,0.00,,,0.00,WUHU216HW,2013-10-14 02:26:00,
2013-10-13 21:31:00,56.9,35.1,30.26,ENE,68,1.1,2.7,44,0.00,,,0.00,WUHU216HW,2013-10-14 02:31:00,
2013-10-13 21:36:00,56.7,34.9,30.26,ENE,68,2.0,2.0,44,0.00,,,0.00,WUHU216HW,2013-10-14 02:36:00,
2013-10-13 21:41:00,56.3,35.1,30.26,ENE,68,2.9,3.4,45,0.00,,,0.00,WUHU216HW,2013-10-14 02:41:00,
2013-10-13 21:46:00,56.5,35.3,30.26,ENE,68,4.7,4.7,45,0.00,,,0.00,WUHU216HW,2013-10-14 02:46:00,
2013-10-13 21:51:00,56.5,35.3,30.26,NE,45,2.7,4.7,45,0.00,,,0.00,WUHU216HW,2013-10-14 02:51:00,
2013-10-13 21:56:00,56.2,35.0,30.26,ENE,68,1.8,4.7,45,0.00,,,0.00,WUHU216HW,2013-10-14 02:56:00,
2013-10-13 22:01:00,55.8,35.2,30.26,ENE,68,1.8,2.7,46,0.00,,,0.00,WUHU216HW,2013-10-14 03:01:00,
2013-10-13 22:06:00,55.6,35.0,30.26,NE,45,1.8,2.2,46,0.00,,,0.00,WUHU216HW,2013-10-14 03:06:00,
2013-10-13 22:11:00,55.3,34.7,30.26,ENE,68,2.0,2.2,46,0.00,,,0.00,WUHU216HW,2013-10-14 03:11:00,
2013-10-13 22:16:00,55.3,34.7,30.26,East,90,2.7,2.7,46,0.00,,,0.00,WUHU216HW,2013-10-14 03:16:00,
2013-10-13 22:21:00,55.3,34.7,30.26,NE,45,3.1,3.1,46,0.00,,,0.00,WUHU216HW,2013-10-14 03:21:00,
2013-10-13 22:26:00,55.1,35.1,30.26,ENE,68,2.9,3.1,47,0.00,,,0.00,WUHU216HW,2013-10-14 03:26:00,
2013-10-13 22:31:00,55.1,35.1,30.25,NE,45,3.4,3.4,47,0.00,,,0.00,WUHU216HW,2013-10-14 03:31:00,
2013-10-13 22:36:00,55.1,35.1,30.25,NE,45,4.0,4.0,47,0.00,,,0.00,WUHU216HW,2013-10-14 03:36:00,
2013-10-13 22:41:00,55.1,35.1,30.26,ENE,68,3.4,4.0,47,0.00,,,0.00,WUHU216HW,2013-10-14 03:41:00,
2013-10-13 22:46:00,55.1,35.1,30.26,ENE,68,3.4,4.0,47,0.00,,,0.00,WUHU216HW,2013-10-14 03:46:00,
2013-10-13 22:51:00,54.9,34.9,30.26,ENE,68,2.5,3.4,47,0.00,,,0.00,WUHU216HW,2013-10-14 03:51:00,
2013-10-13 22:56:00,54.5,35.2,30.26,ENE,68,2.2,3.4,48,0.00,,,0.00,WUHU216HW,2013-10-14 03:56:00,
2013-10-13 23:01:00,54.4,34.5,30.26,ENE,68,2.7,2.7,47,0.00,,,0.00,WUHU216HW,2013-10-14 04:01:00,
2013-10-13 23:06:00,54.2,34.3,30.26,ENE,68,3.1,3.1,47,0.00,,,0.00,WUHU216HW,2013-10-14 04:06:00,
2013-10-13 23:11:00,54.2,34.3,30.26,NE,45,3.4,3.4,47,0.00,,,0.00,WUHU216HW,2013-10-14 04:11:00,
2013-10-13 23:16:00,54.4,34.5,30.26,ENE,68,1.1,3.4,47,0.00,,,0.00,WUHU216HW,2013-10-14 04:16:00,
2013-10-13 23:21:00,54.2,34.3,30.26,ENE,68,2.5,3.4,47,0.00,,,0.00,WUHU216HW,2013-10-14 04:21:00,
2013-10-13 23:26:00,54.2,34.8,30.26,ENE,68,2.2,3.4,48,0.00,,,0.00,WUHU216HW,2013-10-14 04:26:00,
2013-10-13 23:31:00,53.8,34.5,30.26,ENE,68,2.7,2.7,48,0.00,,,0.00,WUHU216HW,2013-10-14 04:31:00,
2013-10-13 23:36:00,53.8,34.5,30.25,ENE,68,3.4,3.4,48,0.00,,,0.00,WUHU216HW,2013-10-14 04:36:00,
2013-10-13 23:41:00,53.8,34.5,30.25,ENE,68,2.0,3.4,48,0.00,,,0.00,WUHU216HW,2013-10-14 04:41:00,
2013-10-13 23:46:00,54.0,34.7,30.25,East,90,1.6,3.4,48,0.00,,,0.00,WUHU216HW,2013-10-14 04:46:00,
2013-10-13 23:51:00,53.8,34.5,30.25,East,90,2.9,2.9,48,0.00,,,0.00,WUHU216HW,2013-10-14 04:51:00,
2013-10-13 23:57:00,53.6,34.9,30.25,ENE,68,1.1,3.4,49,0.00,,,0.00,WUHU216HW,2013-10-14 04:57:00,